sat.trackr.live / text

‹ back to catalog

NAVSTAR 66 (USA 232)

NORAD 37753 · 2011-036A

PAYLOAD ACTIVE UNKNOWN

§ Identity

Operator
Country
US
Launch date
2011-07-16
Launch site
AFETR
Launch vehicle
Mass (kg)
RCS (m²)
12.59

External: N2YO · Heavens-Above · Gunter

§ Orbital elements

Epoch: 2026-09-13T02:50:23.004384Z

Period
717.99 min
Inclination
56.5171°
Eccentricity
0.0140667
Mean motion
2.00561200 rev/d
Perigee alt
19,808.8 km
Apogee alt
20,556.0 km
Semi-major
26,560.6 km
B*
0.0000e+0
RAAN
328.5962°
Arg perigee
63.0668°
Mean anomaly
298.5653°
Rev number
11,103

§ Raw data

NAVSTAR 66 (USA 232)1 37753U 11036A   26256.11832181 -.00000093  00000+0  00000+0 0  99932 37753  56.5171 328.5962 0140667  63.0668 298.5653  2.00561200111030

JSON: /api/v1/satellites/37753 · /tle

For live sub-satellite position, see the globe view (requires WebGL).

§ Visibility from observer

Set your observer location to see the next 7 days of passes ≥ 10°. The values pass through the URL so the page stays shareable.

No JS? Fill the form by hand. The geolocation button needs JavaScript.